Tiempo atmosférico en la estación meteorológica de Doña Mencia, Córdoba (650 m.)



Fecha
DESCASC
Temp. máxima en grados centígrados (hora)
DESCASC
Temp. mínima en grados centígrados (hora)
DESCASC
Temp. media en grados centígrados
DESCASC
Racha de viento máxima en m/sg (hora)
DESCASC
Velocidad máxima media en intervalos de 10 minutos(hora)
DESCASC
Precipitaciones diarias en mm
DESCASC
Precipitaciones de 00:00 a 06:00 en mm
DESCASC
Precipitaciones de 06:00 a 12:00 en mm
DESCASC
Precipitaciones de 12:00 a 18:00 en mm
DESCASC
Precipitaciones de 18:00 a 24:00 en mm
DESCASC
03-12-2020 14 (14:30) 5.1 (06:40) 9.5 10 (23:59) 5.83 (23:40) 0 0 0 0 0
02-12-2020 15.8 (15:00) 8.5 (23:59) 12.2 7.22 (23:10) 3.33 (07:50) 0 0 0 0 0
01-12-2020 16.8 (15:10) 9.9 (23:59) 13.3 7.22 (15:10) 2.5 (18:30) 0 0 0 0 0
30-11-2020 18.8 (13:30) 11.6 (00:00) 15.2 6.94 (04:30) 4.72 (08:50) 0 0 0 0 0
29-11-2020 16.4 (12:20) 11.3 (00:00) 13.8 6.67 (05:50) 3.61 (05:50) 0 0 0 0 0
28-11-2020 12.3 (16:50) 8.1 (00:00) 10.2 6.11 (23:59) 3.61 (12:40) 1.3 0.7 0.6 0 0
27-11-2020 9.3 (15:10) 6.9 (00:00) 8.1 4.72 (02:40) 2.78 (02:40) 24.4 22.6 1.5 0.1 0.2
26-11-2020 14.4 (01:40) 8.3 (00:00) 11.3 9.17 (01:00) 4.44 (00:30) 27.2 9.3 11.2 2.3 4.4
25-11-2020 17.7 (13:20) 10.1 (00:00) 13.9 15.83 (14:50) 6.67 (15:00) 8.8 0 0 1.7 7.1
24-11-2020 17.8 (15:40) 9.1 (00:00) 13.4 7.22 (23:59) 3.89 (23:59) 0 0 0 0 0
23-11-2020 18 (16:10) 8.1 (00:00) 13.1 5.28 (13:30) 3.33 (18:30) 0 0 0 0 0
22-11-2020 18.8 (16:40) 9.7 (00:00) 14.2 6.94 (02:30) 3.61 (03:20) 0 0 0 0 0
21-11-2020 19.5 (14:00) 11.2 (00:00) 15.3 7.5 (23:50) 4.17 (23:50) 0 0 0 0 0
20-11-2020 22.5 (15:50) 12.7 (00:00) 17.6 8.89 (11:50) 5 (12:20) 0 0 0 0 0
19-11-2020 25 (15:50) 14.9 (00:00) 19.9 6.11 (11:00) 3.06 (08:20) 0 0 0 0 0
18-11-2020 25.4 (16:10) 14.9 (00:00) 20.1 5.56 (06:10) 4.72 (06:20) 0 0 0 0 0
17-11-2020 23 (15:00) 13.6 (00:00) 18.3 4.17 (15:40) 2.78 (07:50) 0 0 0 0 0
16-11-2020 21.9 (15:30) 14.9 (00:00) 18.4 10.28 (01:00) 5.56 (01:10) 0 0 0 0 0
15-11-2020 23.3 (15:20) 13.8 (00:00) 18.5 6.39 (16:20) 4.17 (16:20) 0 0 0 0 0
14-11-2020 17.2 (12:10) 14.1 (00:00) 15.7 8.61 (12:20) 3.89 (13:10) 0.3 0 0 0.3 0
13-11-2020 21.4 (15:30) 12.5 (00:00) 16.9 4.72 (16:00) 2.78 (04:00) 0 0 0 0 0
12-11-2020 19.5 (16:20) 11.5 (00:00) 15.5 5.56 (05:40) 4.17 (07:00) 0 0 0 0 0
11-11-2020 20.3 (16:10) 12.9 (00:00) 16.6 7.5 (07:00) 4.72 (07:10) 0 0 0 0 0
10-11-2020 20.6 (16:00) 11.2 (00:00) 15.9 5.28 (08:00) 3.61 (08:00) 0 0 0 0 0
09-11-2020 18.1 (14:10) 12 (00:00) 15.1 5 (13:50) 2.78 (01:00) 0 0 0 0 0
08-11-2020 20.4 (15:20) 12 (00:00) 16.2 7.5 (12:50) 4.44 (13:30) 0 0 0 0 0
07-11-2020 17.9 (16:10) 12.2 (00:00) 15 15.28 (07:00) 8.33 (09:40) 5.9 1.2 4.7 0 0
06-11-2020 25.5 (13:00) 14.3 (00:00) 19.9 18.33 (05:40) 9.44 (07:00) 4.7 0 0 0 4.7
05-11-2020 19.6 (23:59) 13.2 (00:00) 16.4 18.89 (04:40) 8.89 (03:10) 4.5 4.3 0.2 0 0

Gráficas

Temp. máximas Temp. mínimas Temp. medias Precipitaciones Rachas de viento máximas Velocidades máximas media en intervalos de 10 minutos

Datos horarios

Fecha y hora oficial Temperatura (ºC) Velocidad del viento (km/h) Dirección del viento Racha (km/h) Dirección de racha Precipitación (mm) Presión (hPa) Tendencia (hPa) Humedad (%)
2020-12-04 23:00:00 4.1 18 Oeste 30 Oeste 0 -- -- 99
2020-12-04 22:00:00 4.5 15 Oeste 35 Oeste 0 -- -- 99
2020-12-04 21:00:00 4.8 18 Oeste 31 Oeste 0 -- -- 99
2020-12-04 20:00:00 4.4 13 Oeste 33 Oeste 0.1 -- -- 99
2020-12-04 19:00:00 4.4 13 Oeste 26 Oeste 0.3 -- -- 99
2020-12-04 18:00:00 5.3 14 Noroeste 23 Noroeste 0.9 -- -- 99
2020-12-04 17:00:00 5.3 14 Oeste 30 Oeste 1.7 -- -- 99
2020-12-04 16:00:00 6.5 15 Noroeste 33 Oeste 1.4 -- -- 99
2020-12-04 15:00:00 6.9 15 Oeste 45 Noroeste 2.1 -- -- 99
2020-12-04 14:00:00 7.9 22 Oeste 45 Oeste 0.2 -- -- 99
2020-12-04 13:00:00 7.8 28 Oeste 47 Oeste 0.6 -- -- 99
2020-12-04 12:00:00 7.5 24 Noroeste 59 Oeste 3 -- -- 99
2020-12-04 11:00:00 9.2 29 Oeste 54 Oeste 1.4 -- -- 99
2020-12-04 10:00:00 8.9 33 Oeste 67 Oeste 0 -- -- 99
2020-12-04 09:00:00 8.6 29 Oeste 57 Oeste 0.7 -- -- 99
2020-12-04 08:00:00 8.4 26 Oeste 54 Oeste 0.2 -- -- 99
2020-12-04 07:00:00 7.9 29 Oeste 46 Oeste 0.1 -- -- 99
2020-12-04 06:00:00 7.5 26 Oeste 42 Oeste 0.4 -- -- 99
2020-12-04 05:00:00 7.8 24 Oeste 40 Oeste 0 -- -- 99
2020-12-04 04:00:00 7.8 21 Oeste 40 Oeste 0 -- -- 99
2020-12-04 03:00:00 8.3 23 Oeste 42 Oeste 0 -- -- 99
2020-12-04 02:00:00 8.4 22 Oeste 40 Oeste 0 -- -- 99
2020-12-04 01:00:00 8.5 18 Oeste 37 Oeste 0 -- -- 99
2020-12-04 00:00:00 9.2 18 Oeste 36 Oeste 0 -- -- 99
2020-12-03 23:00:00 9.6 18 Oeste 31 Oeste 0 -- -- 98
2020-12-03 22:00:00 10.6 16 Oeste 28 Oeste 0 -- -- 83
2020-12-03 21:00:00 9.9 13 Oeste 27 Oeste 0 -- -- 88
2020-12-03 20:00:00 10.1 15 Oeste 24 Oeste 0 -- -- 91
2020-12-03 19:00:00 10 10 Oeste 19 Oeste 0 -- -- 84
2020-12-03 18:00:00 10.5 13 Oeste 26 Noroeste 0 -- -- 71
2020-12-03 17:00:00 12.4 16 Oeste 26 Noroeste 0 -- -- 61
2020-12-03 16:00:00 12.7 14 Oeste 27 Oeste 0 -- -- 61
2020-12-03 15:00:00 13.3 16 Oeste 26 Noroeste 0 -- -- 59
2020-12-03 14:00:00 13.3 14 Oeste 22 Oeste 0 -- -- 64
2020-12-03 13:00:00 12.4 6 Oeste 14 Oeste 0 -- -- 63
2020-12-03 12:00:00 11.8 4 Oeste 11 Noroeste 0 -- -- 66
2020-12-03 11:00:00 11.2 4 Noroeste 10 Noroeste 0 -- -- 65
2020-12-03 10:00:00 10.2 8 Noroeste 12 Noroeste 0 -- -- 72
2020-12-03 09:00:00 8.8 0 Calma 11 Nordeste 0 -- -- 62
2020-12-03 08:00:00 6.7 6 Nordeste 10 Nordeste 0 -- -- 70
2020-12-03 07:00:00 5.9 6 Nordeste 10 Este 0 -- -- 72
2020-12-03 06:00:00 5.4 2 Sudeste 10 Nordeste 0 -- -- 66
2020-12-03 05:00:00 5.8 3 Este 11 Nordeste 0 -- -- 63
2020-12-03 04:00:00 6.3 5 Nordeste 17 Este 0 -- -- 59
2020-12-03 03:00:00 7 8 Este 20 Este 0 -- -- 59
2020-12-03 02:00:00 7.2 14 Este 19 Este 0 -- -- 64
2020-12-03 01:00:00 7.9 12 Este 17 Este 0 -- -- 66
2020-12-03 00:00:00 8.8 4 Este 26 Sudeste 0 -- -- 66
2020-12-02 23:00:00 9 8 Sudeste 23 Sudeste 0 -- -- 67
2020-12-02 22:00:00 9 12 Sudeste 24 Sudeste 0 -- -- 68
2020-12-02 21:00:00 10.2 2 Noroeste 19 Sur 0 -- -- 64
2020-12-02 20:00:00 11 2 Sudoeste 15 Sudeste 0 -- -- 63
2020-12-02 19:00:00 11 8 Sudeste 15 Sudeste 0 -- -- 61
2020-12-02 18:00:00 12.5 11 Sudeste 16 Sudeste 0 -- -- 60
2020-12-02 17:00:00 15.3 5 Nordeste 12 Nordeste 0 -- -- 53
2020-12-02 16:00:00 14.8 8 Nordeste 12 Nordeste 0 -- -- 56
2020-12-02 15:00:00 15.6 0 Calma 18 Noroeste 0 -- -- 55
2020-12-02 14:00:00 15.2 11 Noroeste 20 Noroeste 0 -- -- 54
2020-12-02 13:00:00 15.1 6 Oeste 13 Noroeste 0 -- -- 54
2020-12-02 12:00:00 14.7 5 Oeste 12 Oeste 0 -- -- 51
2020-12-02 11:00:00 15.7 4 Este 11 Sudeste 0 -- -- 45
2020-12-02 10:00:00 14 5 Sudeste 8 Este 0 -- -- 56
2020-12-02 09:00:00 10.1 5 Este 16 Este 0 -- -- 64
2020-12-02 08:00:00 9.2 11 Este 15 Este 0 -- -- 75
2020-12-02 07:00:00 8.7 8 Este 10 Este 0 -- -- 99
2020-12-02 06:00:00 9.4 5 Este 8 Este 0 -- -- 99
2020-12-02 05:00:00 9.5 6 Este 8 Este 0 -- -- 99
2020-12-02 04:00:00 9.9 4 Este 8 Este 0 -- -- 99
2020-12-02 03:00:00 10.9 3 Nordeste 5 Norte 0 -- -- 90
2020-12-02 02:00:00 11.6 0 Calma 0 Calma 0 -- -- 87
2020-12-02 01:00:00 11.1 0 Calma 9 Nordeste 0 -- -- 93
2020-12-02 00:00:00 10 6 Nordeste 9 Nordeste 0 -- -- 93
2020-12-01 23:00:00 10.9 6 Este 8 Este 0 -- -- 77
2020-12-01 22:00:00 11 6 Este 8 Este 0 -- -- 69
2020-12-01 21:00:00 13.1 0 Calma 9 Nordeste 0 -- -- 63
2020-12-01 20:00:00 12.4 6 Sudeste 12 Sudeste 0 -- -- 68
2020-12-01 19:00:00 12.1 8 Sudeste 12 Sudeste 0 -- -- 77
2020-12-01 18:00:00 14.1 3 Este 8 Sudeste 0 -- -- 66
2020-12-01 17:00:00 16.3 2 Norte 15 Oeste 0 -- -- 59
2020-12-01 16:00:00 16.7 6 Noroeste 26 Oeste 0 -- -- 57
2020-12-01 15:00:00 16.5 6 Oeste 14 Noroeste 0 -- -- 59
2020-12-01 14:00:00 15.9 8 Noroeste 13 Noroeste 0 -- -- 63
2020-12-01 13:00:00 15.6 0 Calma 10 Noroeste 0 -- -- 68
2020-12-01 12:00:00 14.9 0 Calma -- -- 0 -- -- 72
2020-12-01 11:00:00 13.9 0 Calma -- -- 0 -- -- 81
2020-12-01 10:00:00 12.5 0 Calma 7 Noroeste 0 -- -- 88
2020-12-01 09:00:00 11 5 Noroeste 7 Noroeste 0 -- -- 94
2020-12-01 08:00:00 11.1 0 Calma 2 Este 0 -- -- 93
2020-12-01 07:00:00 11.3 0 Calma 3 Nordeste 0 -- -- 92
2020-12-01 06:00:00 11.1 0 Calma 3 Norte 0 -- -- 92
2020-12-01 05:00:00 11.7 0 Calma 3 Norte 0 -- -- 90
2020-12-01 04:00:00 11.8 0 Calma 4 Norte 0 -- -- 91
2020-12-01 03:00:00 11.9 0 Calma 2 Noroeste 0 -- -- 87
2020-12-01 02:00:00 12 0 Calma 10 Norte 0 -- -- 85
2020-12-01 01:00:00 12.7 0 Calma 0 Calma 0 -- -- 81
2020-12-01 00:00:00 12.9 0 Calma 2 Nordeste 0 -- -- 80
2020-11-30 23:00:00 13 0 Calma 4 Noroeste 0 -- -- 83
2020-11-30 22:00:00 12.3 0 Calma 6 Noroeste 0 -- -- 85
2020-11-30 21:00:00 12.6 0 Calma 8 Oeste 0 -- -- 84
2020-11-30 20:00:00 12.7 0 Calma 5 Norte 0 -- -- 83
2020-11-30 19:00:00 13.6 0 Calma 0 Calma 0 -- -- 79
2020-11-30 18:00:00 14.7 0 Calma 8 Oeste 0 -- -- 67
2020-11-30 17:00:00 16.8 4 Oeste 12 Oeste 0 -- -- 60
2020-11-30 16:00:00 15.9 2 Oeste 12 Oeste 0 -- -- 63
2020-11-30 15:00:00 16.4 2 Oeste 16 Este 0 -- -- 56
2020-11-30 14:00:00 17.7 6 Este 20 Nordeste 0 -- -- 46
2020-11-30 13:00:00 18.1 7 Nordeste 19 Nordeste 0 -- -- 46
2020-11-30 12:00:00 16.7 12 Este 23 Sudeste 0 -- -- 50
2020-11-30 11:00:00 17.5 10 Este 16 Este 0 -- -- 46
2020-11-30 10:00:00 14.4 2 Este 17 Este 0 -- -- 57
2020-11-30 09:00:00 12.6 14 Este 21 Este 0 -- -- 61
2020-11-30 08:00:00 12.2 10 Este 20 Este 0 -- -- 61
2020-11-30 07:00:00 12.2 12 Este 17 Este 0 -- -- 62
2020-11-30 06:00:00 12.2 6 Este 24 Sudeste 0 -- -- 61
2020-11-30 05:00:00 12.5 12 Sudeste 25 Sudeste 0 -- -- 61
2020-11-30 04:00:00 12.1 10 Sudeste 18 Sudeste 0 -- -- 69
2020-11-30 03:00:00 12.7 7 Este 21 Sudeste 0 -- -- 69
2020-11-30 02:00:00 12.7 11 Este 23 Este 0 -- -- 73
2020-11-30 01:00:00 12.6 10 Este 17 Este 0 -- -- 77
2020-11-30 00:00:00 12.8 0 Calma 17 Sudeste 0 -- -- 74
2020-11-29 23:00:00 13 12 Sudeste 18 Sudeste 0 -- -- 77
2020-11-29 22:00:00 13.2 8 Sudeste 10 Sudeste 0 -- -- 77
2020-11-29 21:00:00 13.3 0 Calma 13 Sudeste 0 -- -- 81
2020-11-29 20:00:00 12.6 2 Este 11 Este 0 -- -- 89
2020-11-29 19:00:00 13.2 8 Este 13 Este 0 -- -- 86
2020-11-29 18:00:00 13.5 9 Este 12 Este 0 -- -- 82
2020-11-29 17:00:00 14.6 9 Este 13 Este 0 -- -- 77
2020-11-29 16:00:00 14.9 7 Este 12 Sudeste 0 -- -- 74
2020-11-29 15:00:00 15.9 0 Calma 10 Oeste 0 -- -- 64
2020-11-29 14:00:00 16 5 Noroeste 10 Norte 0 -- -- 73
2020-11-29 13:00:00 15.7 2 Nordeste 10 Sudeste 0 -- -- 71
2020-11-29 12:00:00 15.2 0 Calma 12 Sudeste 0 -- -- 69
2020-11-29 11:00:00 14 9 Este 14 Este 0 -- -- 72
2020-11-29 10:00:00 13.5 3 Este 13 Este 0 -- -- 73
2020-11-29 09:00:00 12.4 5 Este 13 Este 0 -- -- 77
2020-11-29 08:00:00 11.5 0 Calma 17 Sudoeste 0 -- -- 82
2020-11-29 07:00:00 12.1 0 Calma 20 Sur 0 -- -- 78
2020-11-29 06:00:00 12.6 8 Sudoeste 24 Sur 0 -- -- 75
2020-11-29 05:00:00 12.3 2 Oeste 10 Sudoeste 0 -- -- 74
2020-11-29 04:00:00 12.6 3 Este 16 Sudeste 0 -- -- 73
2020-11-29 03:00:00 12.3 2 Este 15 Sudeste 0 -- -- 76
2020-11-29 02:00:00 11.5 6 Sudeste 14 Sudeste 0 -- -- 80
2020-11-29 01:00:00 11.4 5 Sur 18 Sur 0 -- -- 82
2020-11-29 00:00:00 11.7 11 Sudoeste 22 Sudoeste 0 -- -- 82
2020-11-28 23:00:00 11.5 2 Noroeste 10 Noroeste 0 -- -- 87
2020-11-28 22:00:00 10.6 0 Calma 16 Sudeste 0 -- -- 96
2020-11-28 21:00:00 11.1 2 Noroeste 9 Oeste 0 -- -- 93
2020-11-28 20:00:00 10.9 0 Calma 3 Este 0 -- -- 92
2020-11-28 19:00:00 10.1 2 Este 5 Sudeste 0 -- -- 93
2020-11-28 18:00:00 10.7 0 Calma 9 Noroeste 0 -- -- 90
2020-11-28 17:00:00 11.9 5 Noroeste 12 Oeste 0 -- -- 89
2020-11-28 16:00:00 11 6 Noroeste 14 Oeste 0 -- -- 95
2020-11-28 15:00:00 11 8 Oeste 19 Noroeste 0 -- -- 96
2020-11-28 14:00:00 10 11 Noroeste 18 Oeste 0 -- -- 99
2020-11-28 13:00:00 9.4 13 Oeste 21 Oeste 0 -- -- 99
2020-11-28 12:00:00 9.4 10 Oeste 19 Oeste 0 -- -- 99
2020-11-28 11:00:00 8.9 9 Oeste 13 Noroeste 0 -- -- 99
2020-11-28 10:00:00 8.9 8 Oeste 17 Oeste 0 -- -- 99
2020-11-28 09:00:00 8.8 6 Oeste 12 Oeste 0.3 -- -- 99
2020-11-28 08:00:00 8.6 4 Noroeste 6 Noroeste 0.2 -- -- 99
2020-11-28 07:00:00 8.5 3 Noroeste 8 Noroeste 0.1 -- -- 99
2020-11-28 06:00:00 8.4 0 Calma 5 Noroeste 0.1 -- -- 99
2020-11-28 05:00:00 8.3 3 Noroeste 6 Noroeste 0 -- -- 99
2020-11-28 04:00:00 8.3 3 Noroeste 9 Noroeste 0 -- -- 99
2020-11-28 03:00:00 8.2 3 Noroeste 9 Noroeste 0.2 -- -- 99
2020-11-28 02:00:00 8.2 6 Noroeste 11 Noroeste 0.2 -- -- 99
2020-11-28 01:00:00 8.2 2 Noroeste 9 Oeste 0.2 -- -- 99
2020-11-28 00:00:00 8.4 2 Noroeste 10 Oeste 0.1 -- -- 99
2020-11-27 23:00:00 8.3 4 Noroeste 9 Noroeste 0 -- -- 99
2020-11-27 22:00:00 8.4 2 Noroeste 8 Norte 0.1 -- -- 99
2020-11-27 21:00:00 8.6 0 Calma 8 Noroeste 0 -- -- 98
2020-11-27 20:00:00 8.4 0 Calma 11 Noroeste 0 -- -- 98
2020-11-27 19:00:00 8.2 6 Noroeste 11 Oeste 0 -- -- 98
2020-11-27 18:00:00 8.6 3 Noroeste 12 Oeste 0 -- -- 95
2020-11-27 17:00:00 8.6 6 Noroeste 14 Oeste 0 -- -- 94
2020-11-27 16:00:00 8.7 9 Oeste 14 Oeste 0 -- -- 96
2020-11-27 15:00:00 9.1 7 Oeste 13 Oeste 0 -- -- 99
2020-11-27 14:00:00 8.7 8 Oeste 14 Noroeste 0.1 -- -- 99
2020-11-27 13:00:00 8.1 8 Noroeste 12 Noroeste 0 -- -- 99
2020-11-27 12:00:00 8.3 5 Noroeste 13 Noroeste 0 -- -- 99
2020-11-27 11:00:00 8.3 4 Noroeste 9 Oeste 0.1 -- -- 99
2020-11-27 10:00:00 7.9 3 Noroeste 6 Sudeste 0.2 -- -- 99
2020-11-27 09:00:00 7.3 3 Sudeste 6 Sudeste 0 -- -- 99
2020-11-27 08:00:00 6.9 0 Calma 7 Nordeste 0.1 -- -- 99
2020-11-27 07:00:00 7.2 0 Calma 2 Sur 1.1 -- -- 99
2020-11-27 06:00:00 7.2 0 Calma 5 Noroeste 1.6 -- -- 99
2020-11-27 05:00:00 7.1 0 Calma 4 Norte 1.7 -- -- 99
2020-11-27 04:00:00 7.4 0 Calma -- -- -- -- -- 99
2020-11-27 03:00:00 7.5 10 Este 17 Este 4.8 -- -- 99
2020-11-27 02:00:00 8 3 Este 16 Sur 6 -- -- 99
2020-11-27 01:00:00 8.1 8 Sudeste 14 Sudeste 6.4 -- -- 97
2020-11-27 00:00:00 8.8 10 Este 17 Este 3.3 -- -- 99
2020-11-26 23:00:00 9.3 11 Este 17 Este 1.1 -- -- 94
2020-11-26 22:00:00 9.8 0 Calma 8 Este 0 -- -- 83
2020-11-26 21:00:00 9.9 0 Calma 13 Este 0 -- -- 86
2020-11-26 20:00:00 9.4 10 Este 13 Este 0 -- -- 89
2020-11-26 19:00:00 9.6 9 Este 11 Este 0 -- -- 87
2020-11-26 18:00:00 10.1 5 Este 12 Nordeste 0 -- -- 84
2020-11-26 17:00:00 11.5 0 Calma 19 Sudeste 0 -- -- 71
2020-11-26 16:00:00 11.1 0 Calma 18 Sudeste 0 -- -- 75
2020-11-26 15:00:00 12.3 3 Sudoeste 13 Este 0 -- -- 74
2020-11-26 14:00:00 9.6 8 Este 28 Sudeste 0.4 -- -- 92
2020-11-26 13:00:00 10.2 2 Sudeste 20 Sudoeste 1.9 -- -- 80
2020-11-26 12:00:00 10.1 12 Sur 27 Sudoeste 1 -- -- 83
2020-11-26 11:00:00 8.3 7 Sudoeste 22 Sudoeste 2.6 -- -- 99
2020-11-26 10:00:00 9.9 0 Calma 5 Noroeste 4.1 -- -- 99
2020-11-26 09:00:00 9.9 2 Este 6 Noroeste 1.4 -- -- 99
2020-11-26 08:00:00 9.7 3 Sudeste 13 Nordeste 0.4 -- -- 99
2020-11-26 07:00:00 9.5 7 Norte 21 Nordeste 1.7 -- -- 99
2020-11-26 06:00:00 9.7 7 Sudeste 16 Sudeste 2.4 -- -- 99
2020-11-26 05:00:00 9.8 0 Calma 13 Noroeste 4.8 -- -- 99
2020-11-26 04:00:00 10 7 Noroeste 27 Oeste 1.6 -- -- 99
2020-11-26 03:00:00 10.7 16 Oeste 27 Oeste 0.4 -- -- 92
2020-11-26 02:00:00 14.1 8 Sur 33 Sudeste 0 -- -- 56
2020-11-26 01:00:00 14 16 Sur 33 Sur 0.1 -- -- 59
2020-11-26 00:00:00 10.8 3 Este 15 Sur 0.4 -- -- 98
2020-11-25 23:00:00 11.8 15 Sudeste 31 Este 0 -- -- 85
2020-11-25 22:00:00 12.3 15 Sudeste 35 Sudeste 0 -- -- 82
2020-11-25 21:00:00 11.1 15 Este 28 Sudeste 0 -- -- 94
2020-11-25 20:00:00 10.6 5 Sudoeste 25 Oeste 4.8 -- -- 99
2020-11-25 19:00:00 10.6 9 Oeste 15 Oeste 1.9 -- -- 99
2020-11-25 18:00:00 11.4 3 Noroeste 12 Noroeste 1.6 -- -- 95
2020-11-25 17:00:00 11.7 5 Noroeste 24 Oeste 0.1 -- -- 93
2020-11-25 16:00:00 11.4 12 Oeste 34 Oeste 0 -- -- 94
2020-11-25 15:00:00 12.2 24 Oeste 57 Oeste 0 -- -- 70
2020-11-25 14:00:00 16.7 14 Sudoeste 35 Oeste 0 -- -- 58
2020-11-25 13:00:00 17.1 13 Sudoeste 37 Sur 0 -- -- 58
2020-11-25 12:00:00 16.7 11 Sudoeste 31 Sudoeste 0 -- -- 60
2020-11-25 11:00:00 15.3 11 Sudoeste 23 Sudoeste 0 -- -- 64
2020-11-25 10:00:00 13.7 9 Sudoeste 19 Sur 0 -- -- 72
2020-11-25 09:00:00 12.1 0 Calma 16 Sur 0 -- -- 76
2020-11-25 08:00:00 11.7 3 Sur 15 Sur 0 -- -- 81
2020-11-25 07:00:00 11.4 0 Calma 25 Oeste 0 -- -- 84
2020-11-25 06:00:00 12.1 14 Oeste 26 Oeste 0 -- -- 80
2020-11-25 05:00:00 12.6 16 Oeste 32 Oeste 0 -- -- 79
2020-11-25 04:00:00 12.9 19 Oeste 35 Oeste 0 -- -- 77
2020-11-25 03:00:00 12.8 15 Oeste 32 Oeste 0 -- -- 79
2020-11-25 02:00:00 12.8 14 Oeste 26 Oeste 0 -- -- 76
2020-11-25 01:00:00 12.5 11 Oeste 27 Oeste 0 -- -- 71
2020-11-25 00:00:00 14 14 Oeste 26 Oeste 0 -- -- 66
2020-11-24 23:00:00 14 9 Sudoeste 19 Sudoeste 0 -- -- 64
2020-11-24 22:00:00 13.8 8 Sur 22 Sudeste 0 -- -- 64
2020-11-24 21:00:00 12.1 13 Este 22 Este 0 -- -- 67
2020-11-24 20:00:00 11.8 5 Nordeste 9 Norte 0 -- -- 65
2020-11-24 19:00:00 12.1 4 Este 8 Norte 0 -- -- 60
2020-11-24 18:00:00 14.2 4 Norte 11 Oeste 0 -- -- 53
2020-11-24 17:00:00 16.6 5 Noroeste 20 Noroeste 0 -- -- 50
2020-11-24 16:00:00 16.9 9 Noroeste 20 Oeste 0 -- -- 50
2020-11-24 15:00:00 17.2 12 Noroeste 23 Oeste 0 -- -- 49
2020-11-24 14:00:00 16.8 10 Oeste 19 Noroeste 0 -- -- 48
2020-11-24 13:00:00 16 10 Noroeste 18 Oeste 0 -- -- 47
2020-11-24 12:00:00 15.4 5 Oeste 10 Oeste 0 -- -- 47
2020-11-24 11:00:00 13.3 4 Oeste 6 Oeste 0 -- -- 50
2020-11-24 10:00:00 12.3 2 Oeste 4 Oeste 0 -- -- 51
2020-11-24 09:00:00 11 0 Calma 3 Este 0 -- -- 55
2020-11-24 08:00:00 10.3 0 Calma 8 Nordeste 0 -- -- 55
2020-11-24 07:00:00 10.3 2 Norte 6 Este 0 -- -- 56
2020-11-24 06:00:00 10 3 Este 6 Norte 0 -- -- 61
2020-11-24 05:00:00 9.5 0 Calma 5 Noroeste 0 -- -- 62
2020-11-24 04:00:00 10.5 4 Noroeste 5 Noroeste 0 -- -- 54
2020-11-24 03:00:00 11.7 2 Noroeste 4 Noroeste 0 -- -- 45
2020-11-24 02:00:00 12.3 0 Calma 5 Este 0 -- -- 45
2020-11-24 01:00:00 11.5 0 Calma 12 Nordeste 0 -- -- 51
2020-11-24 00:00:00 11.3 8 Nordeste 13 Este 0 -- -- 58
2020-11-23 23:00:00 10.5 0 Calma 15 Este 0 -- -- 60
2020-11-23 22:00:00 10.4 8 Este 12 Este 0 -- -- 62
2020-11-23 21:00:00 11.3 0 Calma 6 Noroeste 0 -- -- 66
2020-11-23 20:00:00 12 0 Calma 7 Sudoeste 0 -- -- 60
2020-11-23 19:00:00 12.8 3 Este 15 Este 0 -- -- 51
2020-11-23 18:00:00 14.9 7 Este 11 Este 0 -- -- 49
2020-11-23 17:00:00 16.4 7 Noroeste 13 Nordeste 0 -- -- 48
2020-11-23 16:00:00 17.9 2 Oeste 12 Noroeste 0 -- -- 46
2020-11-23 15:00:00 17 4 Noroeste 15 Oeste 0 -- -- 50
2020-11-23 14:00:00 15.7 7 Oeste 19 Oeste 0 -- -- 54
2020-11-23 13:00:00 14.9 7 Noroeste 15 Noroeste 0 -- -- 56
2020-11-23 12:00:00 14.6 5 Oeste 12 Noroeste 0 -- -- 55
2020-11-23 11:00:00 13.1 5 Oeste 7 Oeste 0 -- -- 60
2020-11-23 10:00:00 13.5 0 Calma 4 Norte 0 -- -- 61
2020-11-23 09:00:00 9.5 3 Norte 8 Norte 0 -- -- 71
2020-11-23 08:00:00 8.9 0 Calma 6 Norte 0 -- -- 73
2020-11-23 07:00:00 8.8 0 Calma 3 Este 0 -- -- 71
2020-11-23 06:00:00 8.4 2 Sudeste 6 Este 0 -- -- 71
2020-11-23 05:00:00 9.4 0 Calma 6 Noroeste 0 -- -- 66
2020-11-23 04:00:00 10.1 0 Calma 5 Noroeste 0 -- -- 64
2020-11-23 03:00:00 10 0 Calma 4 Este 0 -- -- 64
2020-11-23 02:00:00 10.7 2 Sudeste 4 Este 0 -- -- 63
2020-11-23 01:00:00 10.8 0 Calma 9 Este 0 -- -- 60
2020-11-23 00:00:00 11.3 8 Este 12 Este 0 -- -- 59
2020-11-22 23:00:00 11.5 9 Este 13 Sudeste 0 -- -- 60
2020-11-22 22:00:00 11.5 8 Sudeste 12 Este 0 -- -- 62
2020-11-22 21:00:00 11.5 7 Sudeste 9 Este 0 -- -- 61
2020-11-22 20:00:00 11.8 8 Este 10 Este 0 -- -- 60
2020-11-22 19:00:00 12.3 6 Este 10 Este 0 -- -- 56
2020-11-22 18:00:00 15 6 Nordeste 9 Este 0 -- -- 48
2020-11-22 17:00:00 18.1 5 Sudeste 13 Sudeste 0 -- -- 45
2020-11-22 16:00:00 18 4 Norte 14 Nordeste 0 -- -- 46
2020-11-22 15:00:00 17.6 5 Norte 24 Noroeste 0 -- -- 46
2020-11-22 14:00:00 17.7 3 Oeste 18 Noroeste 0 -- -- 48
2020-11-22 13:00:00 15.6 10 Noroeste 16 Noroeste 0 -- -- 56
2020-11-22 12:00:00 15.6 3 Noroeste 13 Noroeste 0 -- -- 59
2020-11-22 11:00:00 14.4 5 Oeste 9 Oeste 0 -- -- 63
2020-11-22 10:00:00 14.2 3 Sur 17 Sudeste 0 -- -- 58
2020-11-22 09:00:00 10.4 10 Sudeste 20 Sudeste 0 -- -- 67
2020-11-22 08:00:00 10.1 3 Sudeste 17 Este 0 -- -- 71
2020-11-22 07:00:00 10.4 7 Sudeste 18 Sudeste 0 -- -- 66
2020-11-22 06:00:00 10.3 4 Sudeste 10 Sudeste 0 -- -- 74
2020-11-22 05:00:00 10.7 4 Este 10 Este 0 -- -- 74
2020-11-22 04:00:00 11.2 5 Sudeste 21 Este 0 -- -- 74
2020-11-22 03:00:00 11.9 8 Sudeste 25 Sudeste 0 -- -- 72
2020-11-22 02:00:00 12.8 11 Este 22 Este 0 -- -- 72
2020-11-22 01:00:00 12.9 7 Nordeste 23 Este 0 -- -- 72
2020-11-22 00:00:00 13.3 8 Este 27 Este 0 -- -- 72
2020-11-21 23:00:00 13.8 6 Este 26 Este 0 -- -- 69
2020-11-21 22:00:00 14 9 Este 19 Sudeste 0 -- -- 68
2020-11-21 21:00:00 13.6 4 Este 9 Sudeste 0 -- -- 71
2020-11-21 20:00:00 14.5 7 Sudeste 9 Este 0 -- -- 67
2020-11-21 19:00:00 14.5 8 Nordeste 8 Nordeste 0 -- -- 66
2020-11-21 18:00:00 16.3 4 Nordeste 6 Nordeste 0 -- -- 61
2020-11-21 17:00:00 16.9 2 Sudoeste 12 Oeste 0 -- -- 60
2020-11-21 16:00:00 18 5 Oeste 12 Noroeste 0 -- -- 56
2020-11-21 15:00:00 19.2 6 Noroeste 21 Oeste 0 -- -- 54
2020-11-21 14:00:00 18.7 7 Noroeste 17 Noroeste 0 -- -- 55
2020-11-21 13:00:00 17.7 7 Oeste 13 Oeste 0 -- -- 57
2020-11-21 12:00:00 17.9 4 Sudoeste 13 Oeste 0 -- -- 58
2020-11-21 11:00:00 16.5 2 Noroeste 8 Noroeste 0 -- -- 63
2020-11-21 10:00:00 14.8 3 Noroeste 5 Noroeste 0 -- -- 71
2020-11-21 09:00:00 12.3 0 Calma 15 Este 0 -- -- 79
2020-11-21 08:00:00 11.7 13 Este 17 Este 0 -- -- 81
2020-11-21 07:00:00 11.6 7 Este 10 Este 0 -- -- 82
2020-11-21 06:00:00 11.9 4 Este 12 Este 0 -- -- 82
2020-11-21 05:00:00 12.1 8 Este 12 Este 0 -- -- 83
2020-11-21 04:00:00 12.9 4 Noroeste 7 Este 0 -- -- 84
2020-11-21 03:00:00 12.9 0 Calma 5 Sudeste 0 -- -- 84
2020-11-21 02:00:00 13.3 0 Calma 8 Norte 0 -- -- 70
2020-11-21 01:00:00 13.8 5 Noroeste 13 Noroeste 0 -- -- 52
2020-11-21 00:00:00 14.1 0 Calma 15 Este 0 -- -- 39
2020-11-20 23:00:00 14.4 13 Este 23 Este 0 -- -- 37
2020-11-20 22:00:00 14.4 8 Sudeste 20 Sudeste 0 -- -- 37
2020-11-20 21:00:00 16.1 4 Sur 25 Sudeste 0 -- -- 34
2020-11-20 20:00:00 16.6 5 Sudeste 23 Sudeste 0 -- -- 31
2020-11-20 19:00:00 16.8 13 Sur 24 Este 0 -- -- 30
2020-11-20 18:00:00 19 0 Calma 30 Sur 0 -- -- 27
2020-11-20 17:00:00 21 12 Sudeste 30 Sudeste 0 -- -- 27
2020-11-20 16:00:00 22.1 7 Nordeste 22 Este 0 -- -- 29
2020-11-20 15:00:00 21.9 2 Nordeste 18 Este 0 -- -- 32
2020-11-20 14:00:00 22.3 9 Sudeste 24 Sudeste 0 -- -- 38
2020-11-20 13:00:00 21.5 7 Sudeste 32 Sudeste 0 -- -- 42
2020-11-20 12:00:00 19.2 15 Sudeste 32 Sudeste 0 -- -- 47
2020-11-20 11:00:00 18.2 7 Nordeste 19 Nordeste 0 -- -- 54
2020-11-20 10:00:00 16 2 Sur 6 Noroeste 0 -- -- 65
2020-11-20 09:00:00 13.4 0 Calma 16 Este 0 -- -- 66
2020-11-20 08:00:00 13.8 13 Sudeste 16 Sudeste 0 -- -- 63
2020-11-20 07:00:00 13.7 9 Este 12 Este 0 -- -- 64
2020-11-20 06:00:00 14.4 0 Calma 6 Nordeste 0 -- -- 62
2020-11-20 05:00:00 14.1 6 Norte 11 Norte 0 -- -- 66
2020-11-20 04:00:00 15.6 6 Este 11 Sudeste 0 -- -- 57
2020-11-20 03:00:00 15 0 Calma 8 Oeste 0 -- -- 64
2020-11-20 02:00:00 14.9 0 Calma 12 Este 0 -- -- 59
2020-11-20 01:00:00 17.2 2 Sudeste 15 Este 0 -- -- 50
2020-11-20 00:00:00 16.3 10 Este 16 Nordeste 0 -- -- 50
2020-11-19 23:00:00 17.1 6 Este 21 Sur 0 -- -- 48
2020-11-19 22:00:00 18.2 0 Calma 15 Este 0 -- -- 46
2020-11-19 21:00:00 18.9 6 Este 11 Nordeste 0 -- -- 44
2020-11-19 20:00:00 19.5 3 Este 10 Este 0 -- -- 43
2020-11-19 19:00:00 19.4 7 Este 16 Sudeste 0 -- -- 42
2020-11-19 18:00:00 20.6 8 Sudeste 19 Sudeste 0 -- -- 40
2020-11-19 17:00:00 23.2 4 Este 19 Este 0 -- -- 36
2020-11-19 16:00:00 24.7 7 Este 19 Sudeste 0 -- -- 34
2020-11-19 15:00:00 23.6 8 Sudeste 14 Sur 0 -- -- 37
2020-11-19 14:00:00 23.1 2 Sudoeste 10 Sudoeste 0 -- -- 41
2020-11-19 13:00:00 21.9 8 Noroeste 14 Sudeste 0 -- -- 41
2020-11-19 12:00:00 22.8 3 Nordeste 19 Sur 0 -- -- 38
2020-11-19 11:00:00 21.2 6 Sudeste 22 Sur 0 -- -- 41
2020-11-19 10:00:00 20.4 5 Sudeste 13 Este 0 -- -- 43
2020-11-19 09:00:00 16.5 11 Este 17 Este 0 -- -- 50
2020-11-19 08:00:00 15.4 5 Este 10 Este 0 -- -- 52
2020-11-19 07:00:00 16 7 Este 11 Sudeste 0 -- -- 49
2020-11-19 06:00:00 16 2 Noroeste 15 Este 0 -- -- 50
2020-11-19 05:00:00 16 7 Nordeste 10 Este 0 -- -- 48
2020-11-19 04:00:00 17.1 3 Este 14 Este 0 -- -- 45
2020-11-19 03:00:00 17.7 8 Este 12 Este 0 -- -- 43
2020-11-19 02:00:00 18.9 4 Este 17 Sudeste 0 -- -- 42
2020-11-19 01:00:00 17.9 10 Sudeste 17 Sudeste 0 -- -- 44
2020-11-19 00:00:00 17.5 8 Este 10 Este 0 -- -- 43
2020-11-18 23:00:00 17.8 7 Este 11 Este 0 -- -- 42
2020-11-18 22:00:00 18.8 5 Sudeste 13 Sudeste 0 -- -- 40
2020-11-18 21:00:00 18.8 8 Este 14 Sudeste 0 -- -- 40
2020-11-18 20:00:00 19.3 8 Sudeste 12 Sudeste 0 -- -- 37
2020-11-18 19:00:00 18.6 6 Sudeste 9 Este 0 -- -- 40
2020-11-18 18:00:00 19.6 6 Este 10 Este 0 -- -- 43
2020-11-18 17:00:00 23.2 5 Noroeste 11 Sudeste 0 -- -- 38
2020-11-18 16:00:00 25.2 8 Sudeste 12 Sudeste 0 -- -- 34
2020-11-18 15:00:00 23.5 5 Oeste 11 Oeste 0 -- -- 43
2020-11-18 14:00:00 22.7 7 Oeste 12 Noroeste 0 -- -- 43
2020-11-18 13:00:00 22.4 4 Oeste 10 Oeste 0 -- -- 43
2020-11-18 12:00:00 21.2 5 Oeste 8 Oeste 0 -- -- 46
2020-11-18 11:00:00 20 3 Noroeste 10 Sudeste 0 -- -- 47
2020-11-18 10:00:00 20.6 8 Este 19 Este 0 -- -- 46
2020-11-18 09:00:00 16.7 9 Este 17 Este 0 -- -- 59
2020-11-18 08:00:00 16.1 4 Nordeste 14 Este 0 -- -- 54
2020-11-18 07:00:00 15.5 10 Nordeste 20 Este 0 -- -- 57
2020-11-18 06:00:00 16.2 17 Este 19 Este 0 -- -- 45
2020-11-18 05:00:00 16.9 0 Calma 12 Este 0 -- -- 43
2020-11-18 04:00:00 16.8 3 Este 10 Este 0 -- -- 37
2020-11-18 03:00:00 16.8 2 Este 11 Este 0 -- -- 49
2020-11-18 02:00:00 16.1 8 Nordeste 10 Nordeste 0 -- -- 51
2020-11-18 01:00:00 17.7 0 Calma 5 Este 0 -- -- 52
2020-11-18 00:00:00 17.2 0 Calma 6 Norte 0 -- -- 71
2020-11-17 23:00:00 17.5 0 Calma -- -- 0 -- -- 72
2020-11-17 22:00:00 17.9 0 Calma 2 Sudeste 0 -- -- 75
2020-11-17 21:00:00 17.3 0 Calma 6 Nordeste 0 -- -- 80
2020-11-17 20:00:00 17.9 0 Calma 3 Este 0 -- -- 78
2020-11-17 19:00:00 18.1 0 Calma -- -- 0 -- -- 73
2020-11-17 18:00:00 20.3 0 Calma 11 Oeste 0 -- -- 60
2020-11-17 17:00:00 21.4 6 Noroeste 15 Noroeste 0 -- -- 57
2020-11-17 16:00:00 22.3 6 Oeste 15 Noroeste 0 -- -- 53
2020-11-17 15:00:00 22.4 4 Noroeste 13 Noroeste 0 -- -- 54
2020-11-17 14:00:00 21.9 5 Noroeste 13 Noroeste 0 -- -- 55
2020-11-17 13:00:00 21.9 0 Calma -- -- 0 -- -- 56
2020-11-17 12:00:00 20.7 0 Calma -- -- 0 -- -- 63
2020-11-17 11:00:00 19 0 Calma -- -- 0 -- -- 71
2020-11-17 10:00:00 17.6 0 Calma 0 Calma 0 -- -- 80
2020-11-17 09:00:00 14.7 3 Este 12 Este 0 -- -- 99
2020-11-17 08:00:00 14 10 Este 12 Este 0 -- -- 99
2020-11-17 07:00:00 15.1 0 Calma 10 Este 0 -- -- 99
2020-11-17 06:00:00 14.3 8 Este 11 Este 0 -- -- 99
2020-11-17 05:00:00 13.8 9 Este 12 Este 0 -- -- 99
2020-11-17 04:00:00 15 5 Nordeste 8 Este 0 -- -- 99
2020-11-17 03:00:00 15.2 0 Calma 3 Este 0 -- -- 97
2020-11-17 02:00:00 15.2 0 Calma 10 Este 0 -- -- 98
2020-11-17 01:00:00 15.3 0 Calma 10 Este 0 -- -- 98
2020-11-17 00:00:00 15.4 0 Calma 8 Este 0 -- -- 96
2020-11-16 23:00:00 15 6 Este 10 Este 0 -- -- 96
2020-11-16 22:00:00 16.1 2 Este 8 Este 0 -- -- 88
2020-11-16 21:00:00 15.9 3 Este 8 Este 0 -- -- 89
2020-11-16 20:00:00 16.8 2 Norte 6 Norte 0 -- -- 84
2020-11-16 19:00:00 17.4 0 Calma 3 Este 0 -- -- 83
2020-11-16 18:00:00 18.6 0 Calma 10 Noroeste 0 -- -- 78
2020-11-16 17:00:00 19.2 5 Noroeste 16 Norte 0 -- -- 76
2020-11-16 16:00:00 19.9 10 Norte 21 Oeste 0 -- -- 69
2020-11-16 15:00:00 21.2 11 Oeste 17 Oeste 0 -- -- 54
2020-11-16 14:00:00 21 8 Noroeste 16 Oeste 0 -- -- 59
2020-11-16 13:00:00 20.2 9 Oeste 16 Oeste 0 -- -- 68
2020-11-16 12:00:00 19 8 Oeste 13 Oeste 0 -- -- 76
2020-11-16 11:00:00 18.5 8 Oeste 15 Oeste 0 -- -- 75
2020-11-16 10:00:00 17.1 10 Oeste 23 Noroeste 0 -- -- 80
2020-11-16 09:00:00 15.9 6 Oeste 18 Noroeste 0 -- -- 84
2020-11-16 08:00:00 16.6 12 Noroeste 20 Noroeste 0 -- -- 76
2020-11-16 07:00:00 16.1 8 Noroeste 24 Noroeste 0 -- -- 80
2020-11-16 06:00:00 16.2 10 Noroeste 22 Noroeste 0 -- -- 79
2020-11-16 05:00:00 16.5 13 Noroeste 21 Oeste 0 -- -- 73
2020-11-16 04:00:00 17.4 5 Noroeste 23 Noroeste 0 -- -- 58
2020-11-16 03:00:00 19.1 12 Oeste 29 Oeste 0 -- -- 51
2020-11-16 02:00:00 20 13 Noroeste 34 Oeste 0 -- -- 49
2020-11-16 01:00:00 20.7 19 Oeste 37 Oeste 0 -- -- 49
2020-11-16 00:00:00 19.6 10 Noroeste 17 Oeste 0 -- -- 57
2020-11-15 23:00:00 19.5 0 Calma 11 Oeste 0 -- -- 62
2020-11-15 22:00:00 18.8 5 Noroeste 11 Noroeste 0 -- -- 69
2020-11-15 21:00:00 19.9 4 Noroeste 20 Sudeste 0 -- -- 61
2020-11-15 20:00:00 19.3 4 Sudeste 9 Sudeste 0 -- -- 66
2020-11-15 19:00:00 18.9 0 Calma 3 Noroeste 0 -- -- 71
2020-11-15 18:00:00 20.8 3 Oeste 17 Oeste 0 -- -- 54
2020-11-15 17:00:00 22.4 13 Noroeste 23 Oeste 0 -- -- 48
2020-11-15 16:00:00 22.6 13 Noroeste 22 Noroeste 0 -- -- 48
2020-11-15 15:00:00 23.2 9 Oeste 20 Noroeste 0 -- -- 48
2020-11-15 14:00:00 22.4 7 Oeste 17 Oeste 0 -- -- 51
2020-11-15 13:00:00 21.6 4 Oeste 9 Noroeste 0 -- -- 57
2020-11-15 12:00:00 20.4 2 Sur 12 Oeste 0 -- -- 64
2020-11-15 11:00:00 19.2 0 Calma -- -- 0 -- -- 68
2020-11-15 10:00:00 17.1 0 Calma -- -- 0 -- -- 80
2020-11-15 09:00:00 15.5 0 Calma 2 Este 0 -- -- 85
2020-11-15 08:00:00 15.1 0 Calma 3 Noroeste 0 -- -- 84
2020-11-15 07:00:00 15.1 0 Calma 10 Este 0 -- -- 84
2020-11-15 06:00:00 14.7 8 Este 13 Este 0 -- -- 89
2020-11-15 05:00:00 14 12 Este 15 Este 0 -- -- 99
2020-11-15 04:00:00 14.2 13 Este 18 Sudeste 0 -- -- 99
2020-11-15 03:00:00 14.9 2 Nordeste 8 Noroeste 0 -- -- 99
2020-11-15 02:00:00 14.5 0 Calma 9 Este 0 -- -- 99
2020-11-15 01:00:00 14.4 2 Sudeste 10 Noroeste 0 -- -- 99
2020-11-15 00:00:00 14.5 5 Noroeste 13 Noroeste 0 -- -- 99
2020-11-14 23:00:00 14.8 5 Oeste 12 Oeste 0 -- -- 99
2020-11-14 22:00:00 15 4 Noroeste 17 Oeste 0 -- -- 99
2020-11-14 21:00:00 15.4 8 Oeste 16 Oeste 0 -- -- 99
2020-11-14 20:00:00 15.4 9 Noroeste 15 Oeste 0 -- -- 99
2020-11-14 19:00:00 15.5 11 Oeste 22 Oeste 0 -- -- 98
2020-11-14 18:00:00 15.7 11 Oeste 24 Noroeste 0 -- -- 95
2020-11-14 17:00:00 15.9 9 Noroeste 19 Noroeste 0 -- -- 95
2020-11-14 16:00:00 15.9 6 Oeste 21 Oeste 0.1 -- -- 94
2020-11-14 15:00:00 15 5 Noroeste 17 Noroeste 0 -- -- 99
2020-11-14 14:00:00 14.9 0 Calma 24 Oeste 0.2 -- -- 99
2020-11-14 13:00:00 16 13 Noroeste 31 Noroeste 0 -- -- 80
2020-11-14 12:00:00 16.9 7 Oeste 21 Oeste 0 -- -- 78
2020-11-14 11:00:00 16.1 6 Noroeste 9 Noroeste 0 -- -- 85
2020-11-14 10:00:00 14.4 2 Norte 8 Oeste 0 -- -- 96
2020-11-14 09:00:00 14.3 4 Noroeste 12 Noroeste 0 -- -- 96
2020-11-14 08:00:00 14.4 4 Noroeste 10 Noroeste 0 -- -- 93
2020-11-14 07:00:00 14.9 0 Calma 5 Norte 0 -- -- 84
2020-11-14 06:00:00 15.2 0 Calma 6 Noroeste 0 -- -- 80
2020-11-14 05:00:00 15.6 5 Noroeste 8 Noroeste 0 -- -- 77
2020-11-14 04:00:00 16.5 5 Sudoeste 14 Sur 0 -- -- 71
2020-11-14 03:00:00 16.9 5 Sur 16 Sur 0 -- -- 72
2020-11-14 02:00:00 15.8 2 Noroeste 8 Norte 0 -- -- 82
2020-11-14 01:00:00 15.9 3 Noroeste 9 Oeste 0 -- -- 76
2020-11-14 00:00:00 16.4 3 Noroeste 9 Noroeste 0 -- -- 72
2020-11-13 23:00:00 17 4 Noroeste 8 Noroeste 0 -- -- 68
2020-11-13 22:00:00 17 3 Norte 9 Nordeste 0 -- -- 67
2020-11-13 21:00:00 16.9 4 Norte 12 Norte 0 -- -- 68
2020-11-13 20:00:00 17.1 2 Noroeste 8 Oeste 0 -- -- 66
2020-11-13 19:00:00 16.8 0 Calma 5 Sudeste 0 -- -- 66
2020-11-13 18:00:00 18 0 Calma 7 Oeste 0 -- -- 59
2020-11-13 17:00:00 19.5 2 Sur 15 Oeste 0 -- -- 50
2020-11-13 16:00:00 20.6 10 Oeste 17 Oeste 0 -- -- 44
2020-11-13 15:00:00 20.9 2 Oeste 13 Oeste 0 -- -- 47
2020-11-13 14:00:00 18.7 3 Noroeste 15 Noroeste 0 -- -- 54
2020-11-13 13:00:00 19.7 0 Calma 15 Noroeste 0 -- -- 55
2020-11-13 12:00:00 18.5 6 Noroeste 15 Oeste 0 -- -- 57
2020-11-13 11:00:00 17.6 0 Calma -- -- 0 -- -- 61
2020-11-13 10:00:00 15.8 0 Calma 5 Nordeste 0 -- -- 64
2020-11-13 09:00:00 14.3 0 Calma 6 Nordeste 0 -- -- 66
2020-11-13 08:00:00 13.7 0 Calma 5 Sudeste 0 -- -- 68
2020-11-13 07:00:00 13.1 3 Sudeste 8 Nordeste 0 -- -- 69
2020-11-13 06:00:00 13.7 0 Calma 6 Este 0 -- -- 67
2020-11-13 05:00:00 13.8 3 Nordeste 12 Este 0 -- -- 70
2020-11-13 04:00:00 12.8 10 Este 14 Este 0 -- -- 74
2020-11-13 03:00:00 13.1 6 Este 12 Este 0 -- -- 71
2020-11-13 02:00:00 13.8 6 Sur 11 Sudoeste 0 -- -- 69
2020-11-13 01:00:00 13.6 3 Norte 8 Norte 0 -- -- 69
2020-11-13 00:00:00 13.8 0 Calma 4 Norte 0 -- -- 71
2020-11-12 23:00:00 14.6 0 Calma 5 Nordeste 0 -- -- 70
2020-11-12 22:00:00 14.3 3 Este 8 Sudeste 0 -- -- 71
2020-11-12 21:00:00 14.6 5 Este 7 Este 0 -- -- 69
2020-11-12 20:00:00 14.6 3 Este 6 Este 0 -- -- 69
2020-11-12 19:00:00 14.5 2 Nordeste 6 Noroeste 0 -- -- 71
2020-11-12 18:00:00 16 0 Calma 8 Sudeste 0 -- -- 63
2020-11-12 17:00:00 18.7 2 Sur 9 Norte 0 -- -- 56
2020-11-12 16:00:00 18.9 5 Sudeste 11 Sudeste 0 -- -- 59
2020-11-12 15:00:00 18 3 Noroeste 10 Oeste 0 -- -- 59
2020-11-12 14:00:00 17 3 Noroeste 10 Noroeste 0 -- -- 64
2020-11-12 13:00:00 16.5 6 Oeste 11 Este 0 -- -- 65
2020-11-12 12:00:00 17 0 Calma 10 Este 0 -- -- 63
2020-11-12 11:00:00 14.8 0 Calma 4 Oeste 0 -- -- 68
2020-11-12 10:00:00 13.6 3 Noroeste 8 Norte 0 -- -- 72
2020-11-12 09:00:00 13.1 5 Norte 8 Norte 0 -- -- 68
2020-11-12 08:00:00 13.4 6 Sudeste 18 Sudeste 0 -- -- 66
2020-11-12 07:00:00 13.3 15 Este 19 Este 0 -- -- 68
2020-11-12 06:00:00 13 13 Este 20 Este 0 -- -- 71
2020-11-12 05:00:00 12 5 Este 12 Este 0 -- -- 77
2020-11-12 04:00:00 12.3 0 Calma 9 Sudeste 0 -- -- 73
2020-11-12 03:00:00 12.9 0 Calma 14 Sudeste 0 -- -- 69
2020-11-12 02:00:00 13 11 Sudeste 15 Sudeste 0 -- -- 68
2020-11-12 01:00:00 13.4 0 Calma 13 Este 0 -- -- 69
2020-11-12 00:00:00 13.4 9 Este 13 Este 0 -- -- 67
2020-11-11 23:00:00 13.8 5 Este 7 Este 0 -- -- 66
2020-11-11 22:00:00 14.3 0 Calma 8 Norte 0 -- -- 71
2020-11-11 21:00:00 13.8 4 Norte 9 Noroeste 0 -- -- 71
2020-11-11 20:00:00 14.9 5 Norte 9 Norte 0 -- -- 63
2020-11-11 19:00:00 15.9 3 Norte 7 Norte 0 -- -- 61
2020-11-11 18:00:00 16.8 0 Calma 6 Norte 0 -- -- 58
2020-11-11 17:00:00 18.7 3 Nordeste 13 Norte 0 -- -- 53
2020-11-11 16:00:00 20 5 Norte 17 Noroeste 0 -- -- 51
2020-11-11 15:00:00 18.8 8 Noroeste 18 Noroeste 0 -- -- 55
2020-11-11 14:00:00 19.1 7 Noroeste 16 Noroeste 0 -- -- 57
2020-11-11 13:00:00 19 6 Oeste 13 Oeste 0 -- -- 55
2020-11-11 12:00:00 17.3 4 Oeste 12 Oeste 0 -- -- 58
2020-11-11 11:00:00 16.3 5 Noroeste 12 Sudeste 0 -- -- 64
2020-11-11 10:00:00 17.6 5 Este 19 Sudeste 0 -- -- 55
2020-11-11 09:00:00 14 9 Este 18 Este 0 -- -- 65
2020-11-11 08:00:00 13.3 15 Este 26 Sudeste 0 -- -- 66
2020-11-11 07:00:00 14.6 15 Sudeste 27 Sudeste 0 -- -- 62
2020-11-11 06:00:00 13.8 9 Este 22 Este 0 -- -- 68
2020-11-11 05:00:00 13.3 8 Sudeste 17 Este 0 -- -- 70
2020-11-11 04:00:00 14.2 0 Calma 8 Este 0 -- -- 69
2020-11-11 03:00:00 13.8 0 Calma 8 Norte 0 -- -- 72
2020-11-11 02:00:00 14 3 Norte 13 Este 0 -- -- 69
2020-11-11 01:00:00 -- 0 Calma 8 Norte 0 -- -- --
2020-11-11 00:00:00 14.2 2 Norte 17 Sudeste 0 -- -- 66
2020-11-10 23:00:00 14.4 7 Sudeste 10 Este 0 -- -- 66
2020-11-10 22:00:00 14.5 9 Sudeste 12 Este 0 -- -- 66
2020-11-10 21:00:00 14.6 8 Sudeste 12 Sudeste 0 -- -- 66
2020-11-10 20:00:00 14.5 9 Sudeste 13 Sudeste 0 -- -- 68
2020-11-10 19:00:00 14.9 8 Sudeste 11 Sudeste 0 -- -- 62
2020-11-10 18:00:00 17.6 5 Nordeste 10 Nordeste 0 -- -- 53
2020-11-10 17:00:00 17.9 5 Nordeste 13 Sudeste 0 -- -- 57
2020-11-10 16:00:00 20.5 3 Este 15 Norte 0 -- -- 56
2020-11-10 15:00:00 18.9 4 Sudeste 10 Sudeste 0 -- -- 61
2020-11-10 14:00:00 18.5 6 Sudeste 17 Sur 0 -- -- 63
2020-11-10 13:00:00 17.3 5 Oeste 10 Noroeste 0 -- -- 76
2020-11-10 12:00:00 15.4 5 Oeste 14 Este 0 -- -- 82
2020-11-10 11:00:00 17.9 9 Este 16 Este 0 -- -- 72
2020-11-10 10:00:00 15.3 11 Este 17 Este 0 -- -- 92
2020-11-10 09:00:00 12.2 6 Este 18 Este 0 -- -- 99
2020-11-10 08:00:00 11.5 13 Este 19 Este 0 -- -- 99
2020-11-10 07:00:00 11.7 11 Este 18 Este 0 -- -- 99
2020-11-10 06:00:00 11.6 7 Este 14 Este 0 -- -- 99
2020-11-10 05:00:00 11.4 6 Este 10 Este 0 -- -- 99
2020-11-10 04:00:00 11.6 7 Este 10 Este 0 -- -- 99
2020-11-10 03:00:00 11.6 7 Este 9 Este 0 -- -- 99
2020-11-10 02:00:00 11.8 5 Este 7 Sudeste 0 -- -- 98
2020-11-10 01:00:00 11.5 6 Sudeste 9 Este 0 -- -- 99
2020-11-10 00:00:00 12.1 6 Sudeste 11 Sudeste 0 -- -- 99
2020-11-09 23:00:00 12.2 10 Este 12 Sudeste 0 -- -- 99
2020-11-09 22:00:00 12.3 5 Este 8 Este 0 -- -- 99
2020-11-09 21:00:00 13 4 Nordeste 7 Este 0 -- -- 98
2020-11-09 20:00:00 13.4 0 Calma 6 Nordeste 0 -- -- 97
2020-11-09 19:00:00 13.5 4 Este 7 Este 0 -- -- 94
2020-11-09 18:00:00 15 2 Sudeste 5 Sudeste 0 -- -- 88
2020-11-09 17:00:00 15 2 Noroeste 9 Noroeste 0 -- -- 87
2020-11-09 16:00:00 15.2 6 Noroeste 15 Norte 0 -- -- 84
2020-11-09 15:00:00 15.7 9 Norte 16 Norte 0 -- -- 78
2020-11-09 14:00:00 17.5 8 Noroeste 18 Oeste 0 -- -- 68
2020-11-09 13:00:00 16.1 6 Noroeste 14 Oeste 0 -- -- 74
2020-11-09 12:00:00 15.2 8 Oeste 16 Noroeste 0 -- -- 77
2020-11-09 11:00:00 15 0 Calma 8 Oeste 0 -- -- 82
2020-11-09 10:00:00 14.9 3 Oeste 9 Noroeste 0 -- -- 79
2020-11-09 09:00:00 13.6 0 Calma 4 Noroeste 0 -- -- 87
2020-11-09 08:00:00 13 0 Calma 8 Nordeste 0 -- -- 87
2020-11-09 07:00:00 12.6 7 Nordeste 10 Nordeste 0 -- -- 86
2020-11-09 06:00:00 12.8 5 Nordeste 7 Nordeste 0 -- -- 83
2020-11-09 05:00:00 12.8 0 Calma 15 Sur 0 -- -- 80
2020-11-09 04:00:00 12.9 0 Calma 6 Noroeste 0 -- -- 82
2020-11-09 03:00:00 13.1 0 Calma 10 Noroeste 0 -- -- 82
2020-11-09 02:00:00 13.6 6 Noroeste 15 Noroeste 0 -- -- 72
2020-11-09 01:00:00 14.1 10 Noroeste 16 Noroeste 0 -- -- 69
2020-11-09 00:00:00 14.5 0 Calma 16 Sudoeste 0 -- -- 68
2020-11-08 23:00:00 14.6 3 Sudoeste 9 Sudoeste 0 -- -- 66
2020-11-08 22:00:00 15 0 Calma 8 Sudoeste 0 -- -- 67
2020-11-08 21:00:00 15.1 0 Calma 6 Sur 0 -- -- 74
2020-11-08 20:00:00 14.7 0 Calma 4 Sudeste 0 -- -- 81
2020-11-08 19:00:00 15.5 0 Calma 6 Oeste 0 -- -- 76
2020-11-08 18:00:00 17.3 4 Oeste 10 Noroeste 0 -- -- 63
2020-11-08 17:00:00 18.4 8 Noroeste 19 Noroeste 0 -- -- 50
2020-11-08 16:00:00 19.9 13 Oeste 22 Oeste 0 -- -- 46
2020-11-08 15:00:00 19.2 9 Oeste 22 Noroeste 0 -- -- 48
2020-11-08 14:00:00 18.2 13 Oeste 25 Oeste 0 -- -- 50
2020-11-08 13:00:00 19 13 Oeste 27 Oeste 0 -- -- 50
2020-11-08 12:00:00 18.4 10 Sudoeste 23 Sudoeste 0 -- -- 54
2020-11-08 11:00:00 17.3 11 Oeste 21 Sudoeste 0 -- -- 58
2020-11-08 10:00:00 16.6 5 Sudoeste 18 Sur 0 -- -- 63
2020-11-08 09:00:00 14.1 9 Sur 18 Sur 0 -- -- 72
2020-11-08 08:00:00 13.4 5 Sur 14 Sur 0 -- -- 75
2020-11-08 07:00:00 12.9 3 Sudeste 13 Este 0 -- -- 77
2020-11-08 06:00:00 12.8 6 Sudeste 18 Sudeste 0 -- -- 82
2020-11-08 05:00:00 12.9 5 Sudeste 12 Sudeste 0 -- -- 84
2020-11-08 04:00:00 13.1 0 Calma 9 Sudeste 0 -- -- 88
2020-11-08 03:00:00 12.1 5 Este 15 Este 0 -- -- 94
2020-11-08 02:00:00 12.6 12 Este 14 Este 0 -- -- 92
2020-11-08 01:00:00 12.8 4 Este 8 Sudeste 0 -- -- 88
2020-11-08 00:00:00 13.6 0 Calma -- -- 0 -- -- 86
2020-11-07 23:00:00 13.6 0 Calma 2 Este 0 -- -- 85
2020-11-07 22:00:00 13.2 2 Este 8 Este 0 -- -- 90
2020-11-07 21:00:00 14 0 Calma 5 Este 0 -- -- 86
2020-11-07 20:00:00 13.9 0 Calma 3 Este 0 -- -- 88
2020-11-07 19:00:00 13.9 2 Este 7 Oeste 0 -- -- 84
2020-11-07 18:00:00 16.1 6 Oeste 19 Noroeste 0 -- -- 70
2020-11-07 17:00:00 17.1 11 Noroeste 29 Noroeste 0 -- -- 67
2020-11-07 16:00:00 17.2 16 Oeste 27 Noroeste 0 -- -- 66
2020-11-07 15:00:00 17.4 18 Oeste 30 Oeste 0 -- -- 64
2020-11-07 14:00:00 16 19 Oeste 32 Oeste 0 -- -- 71
2020-11-07 13:00:00 15.8 14 Oeste 31 Oeste 0 -- -- 79
2020-11-07 12:00:00 15.3 16 Oeste 42 Oeste 0 -- -- 80
2020-11-07 11:00:00 14.6 21 Oeste 51 Oeste 0 -- -- 92
2020-11-07 10:00:00 13.9 26 Oeste 51 Oeste 0 -- -- 89
2020-11-07 09:00:00 13 24 Oeste 48 Oeste 0.2 -- -- 99
2020-11-07 08:00:00 12.5 22 Oeste 50 Sudoeste 4.5 -- -- 99
2020-11-07 07:00:00 15 26 Sudoeste 55 Sudoeste 0 -- -- 79
2020-11-07 06:00:00 15.1 16 Sudoeste 41 Sudoeste 0.1 -- -- 74
2020-11-07 05:00:00 14.5 17 Sur 38 Sur 0.9 -- -- 81
2020-11-07 04:00:00 13.5 13 Oeste 43 Sudoeste 0 -- -- 79
2020-11-07 03:00:00 16.3 14 Sudoeste 43 Sudoeste 0 -- -- 64
2020-11-07 02:00:00 16.9 23 Sudoeste 47 Sur 0 -- -- 60
2020-11-07 01:00:00 16.4 23 Sur 54 Sudeste 0.2 -- -- 64
2020-11-07 00:00:00 15.3 27 Sur 48 Sur 1.5 -- -- 73
2020-11-06 23:00:00 14.8 6 Oeste 27 Oeste 1.3 -- -- 84
2020-11-06 22:00:00 15.9 4 Oeste 13 Oeste 0.9 -- -- 84
2020-11-06 21:00:00 16 10 Noroeste 23 Oeste 1 -- -- 77
2020-11-06 20:00:00 18.9 8 Oeste 21 Sur 0 -- -- 53
2020-11-06 19:00:00 18.7 8 Noroeste 13 Oeste 0 -- -- 54
2020-11-06 18:00:00 19.4 2 Nordeste 15 Noroeste 0 -- -- 50
2020-11-06 17:00:00 19.8 9 Noroeste 21 Norte 0 -- -- 46
2020-11-06 16:00:00 24.3 11 Sudeste 46 Sudeste 0 -- -- 27
2020-11-06 15:00:00 24.4 21 Sudeste 42 Sur 0 -- -- 27
2020-11-06 14:00:00 24.4 21 Sudeste 49 Sudeste 0 -- -- 28
2020-11-06 13:00:00 25.5 21 Sudeste 44 Sudeste 0 -- -- 27
2020-11-06 12:00:00 23.9 26 Sudeste 51 Este 0 -- -- 29
2020-11-06 11:00:00 23.5 23 Sudeste 59 Sur 0 -- -- 30
2020-11-06 10:00:00 22.5 30 Sudeste 59 Sur 0 -- -- 31
2020-11-06 09:00:00 21.5 30 Sudeste 56 Sur 0 -- -- 31
2020-11-06 08:00:00 21.4 29 Sudeste 65 Sur 0 -- -- 32
2020-11-06 07:00:00 21.4 34 Sur 66 Sur 0 -- -- 32
2020-11-06 06:00:00 21.4 24 Sur 66 Sudeste 0 -- -- 33
2020-11-06 05:00:00 20.2 25 Sudeste 51 Sudeste 0 -- -- 36
2020-11-06 04:00:00 16.9 18 Este 29 Este 0 -- -- 45
2020-11-06 03:00:00 17 15 Nordeste 22 Este 0 -- -- 43
2020-11-06 02:00:00 18.5 9 Sudeste 20 Sudeste 0 -- -- 38
2020-11-06 01:00:00 20.5 12 Sudeste 31 Sudeste 0 -- -- 33
2020-11-06 00:00:00 19.6 18 Sudeste 43 Sudeste 0 -- -- 37
2020-11-05 23:00:00 18.8 19 Sudeste 35 Sudeste 0 -- -- 41
2020-11-05 22:00:00 18.6 18 Sudeste 40 Sudeste 0 -- -- 44
2020-11-05 21:00:00 18.4 19 Sudeste 41 Sudeste 0 -- -- 47
2020-11-05 20:00:00 17.9 20 Sudeste 41 Sudeste 0 -- -- 51
2020-11-05 19:00:00 15.6 17 Sudeste 27 Sudeste 0 -- -- 74
2020-11-05 18:00:00 14.7 5 Este 16 Sudeste 0 -- -- 82
2020-11-05 17:00:00 16.2 0 Calma 16 Norte 0 -- -- 73
2020-11-05 16:00:00 16.1 6 Noroeste 13 Oeste 0 -- -- 78
2020-11-05 15:00:00 14.9 8 Noroeste 17 Noroeste 0 -- -- 91
2020-11-05 14:00:00 13.9 10 Noroeste 26 Noroeste 0 -- -- 95
2020-11-05 13:00:00 18.1 11 Nordeste 36 Nordeste 0 -- -- 60
2020-11-05 12:00:00 16.7 16 Nordeste 34 Nordeste 0 -- -- 66
2020-11-05 11:00:00 16.6 14 Sudeste 49 Sudeste 0 -- -- 62
2020-11-05 10:00:00 16.4 19 Sudeste 36 Sudeste 0 -- -- 65
2020-11-05 09:00:00 15.6 11 Este 24 Sudeste 0.2 -- -- 70
2020-11-05 08:00:00 16.2 11 Sudeste 36 Sudeste 0 -- -- 64
2020-11-05 07:00:00 15.6 19 Sudeste 38 Sudeste 0 -- -- 66
2020-11-05 06:00:00 15.4 23 Sudeste 58 Este 0 -- -- 66
2020-11-05 05:00:00 15 24 Sudeste 68 Sur 0 -- -- 65
2020-11-05 04:00:00 15.4 31 Sudeste 63 Sur 0 -- -- 63
2020-11-05 03:00:00 13.7 27 Sudeste 58 Este 0.8 -- -- 80
2020-11-05 02:00:00 13.9 20 Sudeste 41 Sudeste 3.5 -- -- 84
2020-11-05 01:00:00 14.7 11 Sudeste 25 Este 0 -- -- 76
2020-11-05 00:00:00 14.9 13 Sudeste 53 Este 0.5 -- -- 73